Regional Weather Roundup
Issued by NWS

Home | Current Version | Previous Version | Text Only | Print | Product List | Glossary Off
Versions: 1 2 3 4 5 6 7 8 9 10 11 12 13 14 15 16 17 18 19 20 21 22 23 24 25 26 27 28 29 30 31 32 33 34 35 36 37 38 39 40 41 42 43 44 45 46 47 48 49 50

000
ASUS43 KDMX 051907
RWRIA

WEATHER ROUNDUP FOR IOWA
NATIONAL WEATHER SERVICE DES MOINES IA
100 PM CST THU MAR 05 2015

NOTE: "FAIR" INDICATES FEW OR NO CLOUDS BELOW 12,000 FEET WITH NO
SIGNIFICANT WEATHER AND/OR OBSTRUCTIONS TO VISIBILITY.

* - THESE STATIONS ARE NOT NWS STATIONS...THUS NOT UNDER NWS
QUALITY CONTROL.  THEY ALSO DO NOT REPORT WEATHER SUCH
AS PRECIPITATION OR FOG.

IAZ001>003-012>014-020>022-031>034-043>046-052000-
   NORTHWEST IOWA

CITY           SKY/WX    TMP DP  RH WIND       PRES   REMARKS
CARROLL *      SUNNY     18   0  45 VRB6      30.50F WCI   9
CHEROKEE *     SUNNY     16   1  53 S7        30.47F WCI   6
DENISON *      SUNNY     18  -2  41 SW6       30.47F WCI   9
LE MARS *      SUNNY     21   1  42 SW9       30.45F WCI  11
ORANGE CITY *  SUNNY     19   1  45 S7        30.42F WCI  10
SHELDON *      SUNNY     19   0  42 SW9G15    30.41F WCI   9
STORM LAKE *   SUNNY     16   0  48 SW9       30.46F WCI   4
$$

IAZ055>058-069>071-079>083-090>094-052000-
   SOUTHWEST IOWA

CITY           SKY/WX    TMP DP  RH WIND       PRES   REMARKS
ATLANTIC *     SUNNY     19  -2  38 VRB3      30.51F
AUDUBON *      SUNNY     19   0  42 CALM      30.49F
CLARINDA *     SUNNY     21  -2  35 CALM      30.54F
COUNCIL BLFS * SUNNY     21   1  42 SW8       30.48F WCI  12
CRESTON *      SUNNY     18  -4  38 CALM      30.51F
HARLAN  *      SUNNY     19   0  42 SW6       30.53F WCI  11
RED OAK *      SUNNY     21   0  39 CALM      30.52F
SHENANDOAH *   SUNNY     23   0  36 SE6       30.53F WCI  16
$$

IAZ047>049-059>061-072>074-084-052000-
   CENTRAL IOWA

CITY           SKY/WX    TMP DP  RH WIND       PRES   REMARKS
ANKENY *       SUNNY     12  -4  48 CALM      30.56F
CHARITON *     SUNNY     18  -2  41 VRB5      30.53F WCI  11
GRINNELL*      SUNNY     10   0  61 NW9       30.54F WCI  -2
KNOXVILLE *    SUNNY     14  -4  44 VRB5      30.54F WCI   6
PELLA *        SUNNY     14   1  57 NW5       30.57F WCI   6
PERRY *          N/A     14   1  57 W3        30.53F
$$

IAZ004>006-015-016-023>025-035-036-052000-
   NORTH CENTRAL IOWA

CITY           SKY/WX    TMP DP  RH WIND       PRES   REMARKS
ALGONA *       SUNNY     12   1  62 S13       30.48F WCI  -3
CLARION *      SUNNY     10   0  61 SW8       30.51F WCI  -1
FOREST CITY *  SUNNY     12   0  57 SW8       30.48F WCI   1
IOWA FALLS *     N/A     10  -2  56 W8        30.52F WCI  -1
$$

IAZ007>011-017>019-026>030-037>042-050>054-066-052000-
   NORTHEAST IOWA

CITY           SKY/WX    TMP DP  RH WIND       PRES   REMARKS
CHARLES CITY * SUNNY      7  -6  56 NW8       30.51F WCI  -6
DECORAH *      SUNNY      7  -8  51 SW8G14    30.48F WCI  -6
MONTICELLO *   SUNNY      7  -8  51 W12       30.54F WCI  -9
OELWEIN *      SUNNY      7  -6  56 W10       30.52F WCI  -8
$$

IAZ064-065-067-068-078-052000-
   EAST CENTRAL IOWA

CITY           SKY/WX    TMP DP  RH WIND       PRES   REMARKS
MT. PLEASANT * SUNNY     14  -2  48 NW8       30.58S WCI   3
MUSCATINE *    SUNNY     12   0  57 W10       30.59F WCI  -1
$$

IAZ062-063-075>077-085>089-095>099-052000-
   SOUTHEAST IOWA

CITY           SKY/WX    TMP DP  RH WIND       PRES   REMARKS
FAIRFIELD *    SUNNY     12  -4  48 NW9       30.57F WCI   0
FORT MADISON * SUNNY     12   1  62 NW10      30.57F WCI  -1
KEOKUK *       SUNNY     14   1  57 NW10      30.56F WCI   1
OSKALOOSA *      N/A     12   0  57 NW6       30.56F WCI   3
CENTERVILLE *  SUNNY     18   1  49 W6        30.55F WCI   9
WASHINGTON *   SUNNY     10   0  61 NW12      30.57F WCI  -4
$$

ABBREVIATIONS USED IN REMARKS
   TC - TEMPERATURES IN CELSIUS
  WCI - WIND CHILL INDEX
   HX - HEAT INDEX
  VSB - VISIBILITY
$$



USA.gov is the U.S. government's official web portal to all federal, state and local government web resources and services.